Weather History for Philip, SD

Change the Weather History Date:

Tuesday, May 29, 2012

  Actual Average Record
Temperature  
Mean Temperature 56 °F 62 °F  
Max Temperature 71 °F 74 °F 91 °F (1958)
Min Temperature 41 °F 49 °F 36 °F (1954)
Degree Days  
Heating Degree Days 9 5  
Month to date heating degree days 200 258  
Since 1 July heating degree days 5821 7125  
Cooling Degree Days 0 1  
Month to date cooling degree days 43 24  
Year to date cooling degree days 57 27  
Growing Degree Days 8 (Base 50)    
Moisture  
Dew Point 36 °F    
Average Humidity 55    
Maximum Humidity 82    
Minimum Humidity 28    
Precipitation  
Precipitation 0.00 in 0.09 in 0.43 in (1974)
Month to date precipitation 1.13 2.83  
Year to date precipitation 3.77 6.72  
Sea Level Pressure  
Sea Level Pressure 30.02 in    
Wind  
Wind Speed 15 mph (NW)    
Max Wind Speed 26 mph    
Max Gust Speed 37 mph    
Visibility 10 miles    
Events      
T = Trace of Precipitation, MM = Missing Value Source: NWS Daily Summary

Daily Weather History Graph

Daily Weather History Graph

Search for Another Location

Airport:

Trip Planner

Search our weather history database for the weather conditions in past years. The results will help you decide how hot, cold, wet, or windy it might be!

Date:

Astronomy

May. 29, 2012 Rise Set
Actual Time 5:07 AM MDT 8:20 PM MDT
Civil Twilight 4:32 AM MDT 8:55 PM MDT
Nautical Twilight 3:47 AM MDT 9:41 PM MDT
Astronomical Twilight 2:51 AM MDT 10:37 PM MDT
Moon 1:41 PM MDT (5/29) 1:15 AM MDT (5/29)
Length of Visible Light 16h 23m
Length of Day
15h 12m
First Quarter, 60% of the Moon is Illuminated
May 29
First Quarter
Jun 4
Full
Jun 11
Last Quarter
Jun 19
New
Jun 26
First Quarter

Hourly Weather History & Observations

Time (MDT) Temp. Windchill Dew Point Humidity Pressure Visibility Wind Dir Wind Speed Gust Speed Precip Events Conditions
12:55 AM 48.9 °F - 35.1 °F 59% 29.98 in 10.0 mi West 15.0 mph - N/A   Clear
1:55 AM 48.9 °F - 35.1 °F 59% 29.97 in 10.0 mi West 16.1 mph - N/A   Clear
2:55 AM 46.0 °F 39.9 °F 35.1 °F 66% 29.98 in 10.0 mi West 13.8 mph - N/A   Clear
3:55 AM 46.9 °F - 35.1 °F 63% 29.98 in 10.0 mi WNW 15.0 mph - N/A   Clear
4:55 AM 46.9 °F - 35.1 °F 63% 30.00 in 10.0 mi WNW 12.7 mph - N/A   Clear
5:55 AM 46.0 °F 39.9 °F 36.0 °F 68% 30.03 in 10.0 mi West 13.8 mph - N/A   Clear
6:55 AM 51.1 °F - 37.0 °F 59% 30.04 in 10.0 mi WNW 9.2 mph - N/A   Clear
7:55 AM 54.0 °F - 37.9 °F 55% 30.04 in 10.0 mi WNW 25.3 mph 34.5 mph N/A   Clear
8:55 AM 57.0 °F - 37.9 °F 49% 30.06 in 10.0 mi NW 25.3 mph 29.9 mph N/A   Clear
9:55 AM 60.1 °F - 37.0 °F 42% 30.05 in 10.0 mi NW 18.4 mph 29.9 mph N/A   Clear
10:55 AM 62.1 °F - 37.0 °F 39% 30.05 in 10.0 mi WNW 21.9 mph 28.8 mph N/A   Clear
11:55 AM 64.0 °F - 35.1 °F 34% 30.03 in 10.0 mi WNW 20.7 mph 28.8 mph N/A   Clear
12:55 PM 66.0 °F - 36.0 °F 33% 30.01 in 10.0 mi NW 20.7 mph 26.5 mph N/A   Clear
1:55 PM 68.0 °F - 36.0 °F 31% 30.00 in 10.0 mi NW 19.6 mph 33.4 mph N/A   Clear
2:55 PM 69.1 °F - 35.1 °F 29% 29.99 in 10.0 mi NW 19.6 mph 29.9 mph N/A   Clear
3:55 PM 70.0 °F - 36.0 °F 29% 29.97 in 10.0 mi NNW 16.1 mph 23.0 mph N/A   Clear
4:55 PM 69.1 °F - 36.0 °F 30% 29.98 in 10.0 mi North 11.5 mph 20.7 mph N/A   Clear
5:55 PM 66.9 °F - 36.0 °F 32% 29.99 in 10.0 mi North 15.0 mph - N/A   Clear
6:55 PM 62.1 °F - 35.1 °F 37% 29.99 in 10.0 mi NNE 15.0 mph - N/A   Clear
7:55 PM 59.0 °F - 37.0 °F 44% 30.00 in 10.0 mi ENE 13.8 mph - N/A   Clear
8:55 PM 53.1 °F - 37.0 °F 55% 30.03 in 10.0 mi ENE 10.4 mph - N/A   Clear
9:55 PM 48.0 °F - 37.9 °F 68% 30.05 in 10.0 mi East 9.2 mph - N/A   Clear
10:55 PM 45.0 °F 40.1 °F 37.9 °F 76% 30.07 in 10.0 mi East 9.2 mph - N/A   Clear
11:55 PM 42.1 °F 40.2 °F 37.0 °F 82% 30.07 in 10.0 mi East 3.5 mph - N/A   Clear